Content
SEND FEEDBACK

Daily
Averages
Monthly
Summary
Mexico

COZUMEL, QUINTANA ROO


Home > North America > Mexico > Quintana Roo
Elevation: 15 feet     Latitude: 20 31N     Longitude: 086 56W

WEATHER
 
SELECT A DAY
Number of Records: 127,984;   Date Range: 1/1/95 - 11/22/14
 
SHARE

PRINT THIS DATA

[ ← Previous Day ]
WEATHER ALMANAC - DECEMBER 7, 2013
[ Next Day → ]
[ °C ]   °F
Weather ElementAverageHighLow
Temperature73.4 °F80.6 °F (9:53 am)64.4 °F (10:45 pm)
Dewpoint68.7 °F71.6 °F (7:47 am)64.4 °F (10:45 pm)
Humidity86.2 %100 % (2:23 am)65 % (10:49 am)
Barometer30.07 in30.14 in (8:42 am)30.02 in (4:45 pm)
Wind Speed5.3 mph13.8 mph (10:49 am)
Weather ElementAverage
Visibility7.3 mi
Wind DirectionENE (73.6 °)

Weather ElementTotal
Precipitation---
Cooling Degree Days7.5 (Base 65)
Growing Degree Days22.5 (Base 50)
Averaged from 22 records on December 7, 2013
WEATHER CONDITIONS BREAKOUT
WIND DIRECTION BREAKOUT
WEATHER BY HOUR - DECEMBER 7, 2013
[ °C ]   °F
Local TimeTemperatureDewpointHumidityBarometerVisibilityWind DirectionWind SpeedGust SpeedPrecipitationEventsConditions
2:23 AM69.8 °F69.8 °F100 %30.03 in7.0 miESE (110°)3.5 mphPartly Cloudy
3:07 AM69.8 °F69.8 °F100 %30.06 in7.0 miCalmPartly Cloudy
4:48 AM69.8 °F69.8 °F100 %30.04 in7.0 miCalmPartly Cloudy
5:52 AM71.6 °F69.8 °F94 %30.04 in7.0 miCalmPartly Cloudy
6:47 AM69.8 °F69.8 °F100 %30.08 in7.0 miEast (90°)3.5 mphPartly Cloudy
7:47 AM75.2 °F71.6 °F89 %30.10 in7.0 miEast (90°)4.6 mphPartly Cloudy
8:42 AM78.8 °F69.8 °F74 %30.14 in7.0 miEast (90°)8.1 mphPartly Cloudy
9:53 AM80.6 °F69.8 °F70 %30.11 in7.0 miEast (90°)8.1 mphPartly Cloudy
10:49 AM80.6 °F68.0 °F65 %30.10 in8.0 miEast (90°)13.8 mphPartly Cloudy
11:50 AM80.6 °F69.8 °F70 %30.07 in8.0 miEast (90°)11.5 mphPartly Cloudy
12:42 PM80.6 °F69.8 °F70 %30.06 in8.0 miEast (100°)6.9 mphScattered Clouds
1:43 PM77.0 °F69.8 °F78 %30.05 in8.0 miEast (80°)11.5 mphScattered Clouds
2:44 PM77.0 °F69.8 °F78 %30.06 in8.0 miEast (80°)5.8 mphMostly Cloudy
3:44 PM77.0 °F69.8 °F78 %30.03 in8.0 miEast (80°)6.9 mphScattered Clouds
4:45 PM75.2 °F69.8 °F83 %30.02 in8.0 miEast (90°)6.9 mphScattered Clouds
5:48 PM73.4 °F68.0 °F83 %30.02 in7.0 miEast (100°)4.6 mphPartly Cloudy
6:49 PM69.8 °F68.0 °F94 %30.05 in7.0 miEast (100°)5.8 mphClear
7:49 PM69.8 °F66.2 °F88 %30.07 in7.0 miEast (90°)4.6 mphClear
8:46 PM69.8 °F66.2 °F88 %30.11 in7.0 miEast (80°)3.5 mphClear
9:44 PM68.0 °F66.2 °F94 %30.08 in7.0 miEast (90°)3.5 mphClear
10:45 PM64.4 °F64.4 °F100 %30.07 in7.0 miCalmClear
11:51 PM66.2 °F66.2 °F100 %30.04 in7.0 miEast (80°)3.5 mphClear
Hourly data recorded from MMCZ, located miles away from Cozumel, Quintana Roo







STORIES FROM OUR PARTNERS